Tracking 31030 objects as of 16-Jul-2025
HD Live streaming from Space Station
objects crossing your sky now

CZ-6A DEB

Track CZ-6A DEB now!
10-day predictions


NORAD ID: 55896
Int'l Code: 2022-151AAU
Perigee: 800.7 km
Apogee: 854.7 km
Inclination: 98.8 °
Period: 101.3 minutes
Semi major axis: 7198 km
RCS: Unknown
Launch date: November 11, 2022
Source: People's Republic of China (PRC)
Launch site: Taiyaun Space Center, China (TSC)

Note: This is SATELLITE DEBRIS
Your satellite tracking list
Your tracking list is empty




NASA's NSSDC Master Catalog

Two Line Element Set (TLE):
1 55896U 22151AAU 25196.95501605  .00002204  00000-0  10215-2 0  9997
2 55896  98.8111 205.4506 0037489 167.4965 192.7151 14.21425041132639
Source of the keplerian elements: AFSPC